Location: Franzen
(48.6167°N, 15.3833°E)
Time: 19:42:48
(UTC+00:00)

ARIANE 5 R/B - Pass Details

Date: 07 August 2021
Orbit: 620 x 656 km, 98.1° (Epoch: 11 September)

Event Time Altitude Azimuth Distance (km) Brightness Sun altitude
Exits shadow 20:40:45 26° 187° (S) 1,268 3.7 -17.8°
Maximum altitude 20:43:07 60° 258° (WSW) 737 3.0 -18.0°
Drops below altitude 10° 20:47:30 10° 339° (NNW) 2,029 6.4 -18.4°
Sets 20:49:44 0° 343° (NNW) 2,936 7.4 -18.7°
